Location: Kaltenbach
(49.2000°N, 7.7500°E)
Time: 19:12:19
(UTC+00:00)

STARLINK-1084 - Pass Details

Date: 24 January 2020
Orbit: 545 x 547 km, 53.0° (Epoch: 21 February)

Event Time Altitude Azimuth Distance (km) Brightness Sun altitude
Rises 17:43:52 0° 281° (WNW) 2,690 8.4 -14.9°
Reaches altitude 10° 17:46:09 10° 288° (WNW) 1,794 7.2 -15.2°
Maximum altitude 17:50:06 48° 3° (N) 701 4.0 -15.9°
Enters shadow 17:51:40 31° 59° (ENE) 954 4.3 -16.1°
